www.cux-wetter.de
Wetterdaten: Samstag, 29.10.2011
Datum Zeit Temp. A. Feuchte A. Luftdruck Regen Wind Richtung Richtung Sonnenschein Solar Taupunkt Windchill Windben
29.10.2011 00:00 11,3 C 92 % 1025,5 hPa 0,0 l/m 0,0 km/h (0 Bft) W-SW 245 0 min 0 W/m 10,0 C 11,3 C 0,0 km/h (0 Bft)
29.10.2011 00:15 11,2 C 92 % 1025,5 hPa 0,0 l/m 0,0 km/h (0 Bft) W-SW 245 0 min 0 W/m 9,9 C 11,2 C 0,0 km/h (0 Bft)
29.10.2011 00:30 11,2 C 92 % 1025,5 hPa 0,0 l/m 5,1 km/h (1 Bft) W-SW 245 0 min 0 W/m 9,9 C 11,2 C 5,1 km/h (1 Bft)
29.10.2011 00:45 11,2 C 92 % 1025,5 hPa 0,0 l/m 4,7 km/h (1 Bft) W-SW 250 0 min 0 W/m 9,9 C 11,2 C 4,7 km/h (1 Bft)
29.10.2011 01:00 11,2 C 92 % 1025,5 hPa 0,0 l/m 0,0 km/h (0 Bft) W-SW 245 0 min 0 W/m 9,9 C 11,2 C 0,0 km/h (0 Bft)
29.10.2011 01:15 11,2 C 92 % 1025,5 hPa 0,0 l/m 0,0 km/h (0 Bft) W-SW 245 0 min 0 W/m 9,9 C 11,2 C 0,0 km/h (0 Bft)
29.10.2011 01:30 11,2 C 92 % 1025,5 hPa 0,0 l/m 0,0 km/h (0 Bft) W-SW 245 0 min 0 W/m 9,9 C 11,2 C 0,0 km/h (0 Bft)
29.10.2011 01:45 11,1 C 92 % 1025,5 hPa 0,0 l/m 0,0 km/h (0 Bft) W-SW 245 0 min 0 W/m 9,8 C 11,1 C 0,0 km/h (0 Bft)
29.10.2011 02:00 11,0 C 93 % 1025,5 hPa 0,0 l/m 0,0 km/h (0 Bft) W-SW 245 0 min 0 W/m 9,9 C 11,0 C 0,0 km/h (0 Bft)
29.10.2011 02:15 11,0 C 93 % 1025,5 hPa 0,0 l/m 0,0 km/h (0 Bft) W-SW 245 0 min 0 W/m 9,9 C 11,0 C 0,0 km/h (0 Bft)
29.10.2011 02:30 10,8 C 92 % 1025,5 hPa 0,0 l/m 0,0 km/h (0 Bft) W-SW 245 0 min 0 W/m 9,6 C 10,8 C 0,0 km/h (0 Bft)
29.10.2011 02:46 10,6 C 92 % 1025,5 hPa 0,0 l/m 0,0 km/h (0 Bft) W-SW 245 0 min 0 W/m 9,4 C 10,6 C 0,0 km/h (0 Bft)
29.10.2011 03:01 10,7 C 93 % 1025,5 hPa 0,0 l/m 0,0 km/h (0 Bft) W-SW 245 0 min 0 W/m 9,6 C 10,7 C 0,0 km/h (0 Bft)
29.10.2011 03:15 10,8 C 93 % 1025,5 hPa 0,0 l/m 0,0 km/h (0 Bft) W-SW 245 0 min 0 W/m 9,7 C 10,8 C 0,0 km/h (0 Bft)
29.10.2011 03:30 10,8 C 92 % 1025,5 hPa 0,0 l/m 0,0 km/h (0 Bft) W-SW 245 0 min 0 W/m 9,6 C 10,8 C 0,0 km/h (0 Bft)
29.10.2011 03:45 10,8 C 92 % 1025,5 hPa 0,0 l/m 0,0 km/h (0 Bft) W-SW 245 0 min 0 W/m 9,6 C 10,8 C 0,0 km/h (0 Bft)
29.10.2011 04:00 10,9 C 92 % 1025,5 hPa 0,0 l/m 0,8 km/h (0 Bft) W-SW 245 0 min 0 W/m 9,7 C 10,9 C 0,8 km/h (0 Bft)
29.10.2011 04:15 11,0 C 93 % 1025,5 hPa 0,0 l/m 3,7 km/h (1 Bft) W-SW 245 0 min 0 W/m 9,9 C 11,0 C 3,7 km/h (1 Bft)
29.10.2011 04:30 11,0 C 93 % 1025,5 hPa 0,0 l/m 2,7 km/h (1 Bft) W-SW 245 0 min 0 W/m 9,9 C 11,0 C 2,7 km/h (1 Bft)
29.10.2011 04:45 11,0 C 93 % 1025,5 hPa 0,0 l/m 3,1 km/h (1 Bft) W-SW 245 0 min 0 W/m 9,9 C 11,0 C 3,1 km/h (1 Bft)
29.10.2011 05:00 11,0 C 93 % 1025,5 hPa 0,0 l/m 3,2 km/h (1 Bft) W-SW 245 0 min 0 W/m 9,9 C 11,0 C 3,2 km/h (1 Bft)
29.10.2011 05:15 11,1 C 93 % 1025,5 hPa 0,0 l/m 0,0 km/h (0 Bft) W-SW 245 0 min 0 W/m 10,0 C 11,1 C 0,0 km/h (0 Bft)
29.10.2011 05:30 11,1 C 93 % 1025,5 hPa 0,0 l/m 4,8 km/h (1 Bft) W-SW 245 0 min 0 W/m 10,0 C 11,1 C 4,8 km/h (1 Bft)
29.10.2011 05:45 11,2 C 93 % 1025,5 hPa 0,0 l/m 4,3 km/h (1 Bft) W-SW 245 0 min 0 W/m 10,1 C 11,2 C 4,3 km/h (1 Bft)
29.10.2011 06:00 11,2 C 93 % 1024,5 hPa 0,0 l/m 0,4 km/h (0 Bft) W-SW 245 0 min 0 W/m 10,1 C 11,2 C 0,4 km/h (0 Bft)
29.10.2011 06:15 11,2 C 93 % 1024,5 hPa 0,0 l/m 0,3 km/h (0 Bft) W-SW 245 0 min 0 W/m 10,1 C 11,2 C 0,3 km/h (0 Bft)
29.10.2011 06:30 11,2 C 93 % 1024,5 hPa 0,0 l/m 0,4 km/h (0 Bft) W-SW 245 0 min 0 W/m 10,1 C 11,2 C 0,4 km/h (0 Bft)
29.10.2011 06:45 11,2 C 93 % 1024,5 hPa 0,0 l/m 3,3 km/h (1 Bft) W-SW 245 0 min 0 W/m 10,1 C 11,2 C 3,3 km/h (1 Bft)
29.10.2011 07:00 11,1 C 93 % 1024,5 hPa 0,0 l/m 1,9 km/h (1 Bft) W-SW 245 0 min 0 W/m 10,0 C 11,1 C 1,9 km/h (1 Bft)
29.10.2011 07:15 11,1 C 93 % 1024,5 hPa 0,0 l/m 7,4 km/h (2 Bft) S-SO 155 0 min 0 W/m 10,0 C 10,4 C 7,4 km/h (2 Bft)
29.10.2011 07:30 11,2 C 93 % 1024,5 hPa 0,0 l/m 6,4 km/h (2 Bft) S-SO 160 0 min 0 W/m 10,1 C 11,2 C 6,4 km/h (2 Bft)
29.10.2011 07:46 11,2 C 93 % 1024,5 hPa 0,0 l/m 5,6 km/h (2 Bft) S-SO 160 0 min 0 W/m 10,1 C 11,2 C 5,6 km/h (2 Bft)
29.10.2011 08:00 11,2 C 93 % 1024,5 hPa 0,0 l/m 8,9 km/h (2 Bft) SO 145 0 min 0 W/m 10,1 C 9,6 C 8,9 km/h (2 Bft)
29.10.2011 08:15 11,4 C 93 % 1024,5 hPa 0,0 l/m 7,5 km/h (2 Bft) S-SO 155 0 min 0 W/m 10,3 C 10,7 C 7,5 km/h (2 Bft)
29.10.2011 08:30 11,3 C 93 % 1024,5 hPa 0,0 l/m 7,2 km/h (2 Bft) SO 135 0 min 0 W/m 10,2 C 10,8 C 7,2 km/h (2 Bft)
29.10.2011 08:45 11,3 C 93 % 1024,5 hPa 0,0 l/m 8,6 km/h (2 Bft) O-SO 120 0 min 0 W/m 10,2 C 9,8 C 8,6 km/h (2 Bft)
29.10.2011 09:00 11,4 C 93 % 1024,5 hPa 0,0 l/m 12,1 km/h (2 Bft) O-SO 105 0 min 0 W/m 10,3 C 8,1 C 12,1 km/h (2 Bft)
29.10.2011 09:15 11,4 C 93 % 1024,5 hPa 0,0 l/m 9,6 km/h (2 Bft) SO 145 0 min 0 W/m 10,3 C 9,4 C 9,6 km/h (2 Bft)
29.10.2011 09:30 11,4 C 93 % 1024,5 hPa 0,0 l/m 14,4 km/h (3 Bft) S-SO 150 0 min 0 W/m 10,3 C 7,1 C 14,4 km/h (3 Bft)
29.10.2011 09:45 11,5 C 94 % 1024,5 hPa 0,0 l/m 11,3 km/h (2 Bft) S-SO 155 0 min 0 W/m 10,6 C 8,6 C 11,3 km/h (2 Bft)
29.10.2011 10:00 11,5 C 94 % 1024,5 hPa 0,0 l/m 14,5 km/h (3 Bft) S 170 0 min 0 W/m 10,6 C 7,2 C 14,5 km/h (3 Bft)
29.10.2011 10:15 11,6 C 94 % 1024,5 hPa 0,0 l/m 9,8 km/h (2 Bft) S 180 0 min 0 W/m 10,7 C 9,5 C 9,8 km/h (2 Bft)
29.10.2011 10:30 11,8 C 94 % 1024,5 hPa 0,0 l/m 11,2 km/h (2 Bft) S 175 0 min 0 W/m 10,9 C 9,0 C 11,2 km/h (2 Bft)
29.10.2011 10:45 11,9 C 94 % 1024,5 hPa 0,0 l/m 14,4 km/h (3 Bft) S-SO 165 0 min 0 W/m 11,0 C 7,7 C 14,4 km/h (3 Bft)
29.10.2011 11:00 12,0 C 94 % 1023,5 hPa 0,0 l/m 15,1 km/h (3 Bft) S 170 0 min 0 W/m 11,1 C 7,5 C 15,1 km/h (3 Bft)
29.10.2011 11:15 12,0 C 94 % 1023,5 hPa 0,0 l/m 13,8 km/h (3 Bft) S-SO 160 0 min 0 W/m 11,1 C 8,0 C 13,8 km/h (3 Bft)
29.10.2011 11:31 12,2 C 93 % 1023,5 hPa 0,0 l/m 15,5 km/h (3 Bft) S-SO 160 0 min 0 W/m 11,1 C 7,6 C 15,5 km/h (3 Bft)
29.10.2011 11:45 12,5 C 93 % 1023,5 hPa 0,0 l/m 15,5 km/h (3 Bft) S 175 0 min 0 W/m 11,4 C 8,0 C 15,5 km/h (3 Bft)
29.10.2011 12:00 12,8 C 92 % 1023,5 hPa 0,0 l/m 15,9 km/h (3 Bft) S 175 0 min 0 W/m 11,5 C 8,2 C 15,9 km/h (3 Bft)
29.10.2011 12:15 13,0 C 91 % 1023,5 hPa 0,0 l/m 13,9 km/h (3 Bft) S 180 0 min 0 W/m 11,6 C 9,2 C 13,9 km/h (3 Bft)
29.10.2011 12:30 13,2 C 91 % 1023,5 hPa 0,0 l/m 20,8 km/h (4 Bft) S 170 0 min 0 W/m 11,8 C 7,2 C 20,8 km/h (4 Bft)
29.10.2011 12:45 13,4 C 88 % 1023,5 hPa 0,0 l/m 18,3 km/h (3 Bft) S 190 0 min 0 W/m 11,5 C 8,2 C 18,3 km/h (3 Bft)
29.10.2011 13:00 13,5 C 87 % 1022,5 hPa 0,0 l/m 15,8 km/h (3 Bft) S 180 0 min 0 W/m 11,4 C 9,1 C 15,8 km/h (3 Bft)
29.10.2011 13:15 13,5 C 87 % 1022,5 hPa 0,0 l/m 15,6 km/h (3 Bft) S 170 0 min 0 W/m 11,4 C 9,2 C 15,6 km/h (3 Bft)
29.10.2011 13:30 13,4 C 87 % 1022,5 hPa 0,0 l/m 22,5 km/h (4 Bft) S 175 0 min 0 W/m 11,3 C 7,0 C 22,5 km/h (4 Bft)
29.10.2011 13:45 13,4 C 87 % 1022,5 hPa 0,0 l/m 13,3 km/h (3 Bft) S 175 0 min 0 W/m 11,3 C 9,9 C 13,3 km/h (3 Bft)
29.10.2011 14:00 13,6 C 87 % 1021,5 hPa 0,0 l/m 17,0 km/h (3 Bft) S 180 0 min 0 W/m 11,5 C 8,8 C 17,0 km/h (3 Bft)
29.10.2011 14:15 13,7 C 86 % 1021,5 hPa 0,0 l/m 14,6 km/h (3 Bft) S 170 0 min 0 W/m 11,4 C 9,8 C 14,6 km/h (3 Bft)
29.10.2011 14:30 13,8 C 86 % 1021,5 hPa 0,0 l/m 16,0 km/h (3 Bft) S 185 0 min 0 W/m 11,5 C 9,4 C 16,0 km/h (3 Bft)
29.10.2011 14:45 13,9 C 86 % 1021,5 hPa 0,0 l/m 17,1 km/h (3 Bft) S 190 0 min 0 W/m 11,6 C 9,2 C 17,1 km/h (3 Bft)
29.10.2011 15:00 13,9 C 85 % 1021,5 hPa 0,0 l/m 20,6 km/h (4 Bft) S 170 0 min 0 W/m 11,4 C 8,2 C 20,6 km/h (4 Bft)
29.10.2011 15:16 13,9 C 86 % 1021,5 hPa 0,0 l/m 14,1 km/h (3 Bft) S 170 0 min 0 W/m 11,6 C 10,2 C 14,1 km/h (3 Bft)
29.10.2011 15:30 13,9 C 85 % 1021,5 hPa 0,0 l/m 16,8 km/h (3 Bft) S 175 0 min 0 W/m 11,4 C 9,3 C 16,8 km/h (3 Bft)
29.10.2011 15:45 13,8 C 85 % 1021,5 hPa 0,0 l/m 13,5 km/h (3 Bft) S-SW 195 0 min 0 W/m 11,3 C 10,3 C 13,5 km/h (3 Bft)
29.10.2011 16:00 13,7 C 86 % 1021,5 hPa 0,0 l/m 13,5 km/h (3 Bft) S 180 0 min 0 W/m 11,4 C 10,2 C 13,5 km/h (3 Bft)
29.10.2011 16:15 13,7 C 86 % 1020,5 hPa 0,0 l/m 16,5 km/h (3 Bft) S 180 0 min 0 W/m 11,4 C 9,1 C 16,5 km/h (3 Bft)
29.10.2011 16:30 13,8 C 86 % 1020,5 hPa 0,0 l/m 12,2 km/h (2 Bft) S 175 0 min 0 W/m 11,5 C 10,8 C 12,2 km/h (2 Bft)
29.10.2011 16:46 13,8 C 86 % 1020,5 hPa 0,0 l/m 13,5 km/h (3 Bft) S 185 0 min 0 W/m 11,5 C 10,3 C 13,5 km/h (3 Bft)
29.10.2011 17:00 13,7 C 86 % 1020,5 hPa 0,0 l/m 13,6 km/h (3 Bft) S 170 0 min 0 W/m 11,4 C 10,1 C 13,6 km/h (3 Bft)
29.10.2011 17:15 13,6 C 86 % 1020,5 hPa 0,0 l/m 14,3 km/h (3 Bft) S 190 0 min 0 W/m 11,3 C 9,7 C 14,3 km/h (3 Bft)
29.10.2011 17:30 13,4 C 86 % 1020,5 hPa 0,0 l/m 13,1 km/h (3 Bft) S 180 0 min 0 W/m 11,1 C 10,0 C 13,1 km/h (3 Bft)
29.10.2011 17:45 13,4 C 86 % 1020,5 hPa 0,0 l/m 13,2 km/h (3 Bft) S 170 0 min 0 W/m 11,1 C 9,9 C 13,2 km/h (3 Bft)
29.10.2011 18:00 13,4 C 87 % 1020,5 hPa 0,0 l/m 13,8 km/h (3 Bft) S 190 0 min 0 W/m 11,3 C 9,7 C 13,8 km/h (3 Bft)
29.10.2011 18:15 13,4 C 87 % 1020,5 hPa 0,0 l/m 17,1 km/h (3 Bft) S 185 0 min 0 W/m 11,3 C 8,5 C 17,1 km/h (3 Bft)
29.10.2011 18:30 13,2 C 87 % 1020,5 hPa 0,0 l/m 12,8 km/h (3 Bft) S 190 0 min 0 W/m 11,1 C 9,9 C 12,8 km/h (3 Bft)
29.10.2011 18:45 13,2 C 87 % 1020,5 hPa 0,0 l/m 10,8 km/h (2 Bft) S 175 0 min 0 W/m 11,1 C 10,7 C 10,8 km/h (2 Bft)
29.10.2011 19:00 13,2 C 87 % 1020,5 hPa 0,0 l/m 14,0 km/h (3 Bft) S 170 0 min 0 W/m 11,1 C 9,4 C 14,0 km/h (3 Bft)
29.10.2011 19:15 13,2 C 87 % 1020,5 hPa 0,0 l/m 11,5 km/h (2 Bft) S 180 0 min 0 W/m 11,1 C 10,4 C 11,5 km/h (2 Bft)
29.10.2011 19:30 13,1 C 87 % 1020,5 hPa 0,0 l/m 11,7 km/h (2 Bft) S 175 0 min 0 W/m 11,0 C 10,2 C 11,7 km/h (2 Bft)
29.10.2011 19:45 13,1 C 87 % 1019,5 hPa 0,0 l/m 13,1 km/h (3 Bft) S 180 0 min 0 W/m 11,0 C 9,6 C 13,1 km/h (3 Bft)
29.10.2011 20:00 13,1 C 88 % 1019,5 hPa 0,0 l/m 13,3 km/h (3 Bft) S-SO 165 0 min 0 W/m 11,2 C 9,5 C 13,3 km/h (3 Bft)
29.10.2011 20:16 13,1 C 88 % 1019,5 hPa 0,0 l/m 10,0 km/h (2 Bft) S 175 0 min 0 W/m 11,2 C 11,0 C 10,0 km/h (2 Bft)
29.10.2011 20:31 13,1 C 88 % 1019,5 hPa 0,0 l/m 10,1 km/h (2 Bft) S 170 0 min 0 W/m 11,2 C 11,0 C 10,1 km/h (2 Bft)
29.10.2011 20:45 13,1 C 88 % 1019,5 hPa 0,0 l/m 12,5 km/h (2 Bft) S 175 0 min 0 W/m 11,2 C 9,9 C 12,5 km/h (2 Bft)
29.10.2011 21:00 13,1 C 88 % 1019,5 hPa 0,0 l/m 11,5 km/h (2 Bft) S 185 0 min 0 W/m 11,2 C 10,3 C 11,5 km/h (2 Bft)
29.10.2011 21:15 13,1 C 89 % 1019,5 hPa 0,0 l/m 11,6 km/h (2 Bft) S 175 0 min 0 W/m 11,3 C 10,3 C 11,6 km/h (2 Bft)
29.10.2011 21:30 13,2 C 89 % 1019,5 hPa 0,0 l/m 12,5 km/h (2 Bft) S 180 0 min 0 W/m 11,4 C 10,0 C 12,5 km/h (2 Bft)
29.10.2011 21:45 13,1 C 89 % 1019,5 hPa 0,0 l/m 9,6 km/h (2 Bft) S-SW 195 0 min 0 W/m 11,3 C 11,2 C 9,6 km/h (2 Bft)
29.10.2011 22:01 13,2 C 89 % 1019,5 hPa 0,0 l/m 14,5 km/h (3 Bft) S-SW 205 0 min 0 W/m 11,4 C 9,2 C 14,5 km/h (3 Bft)
29.10.2011 22:15 13,4 C 89 % 1019,5 hPa 0,0 l/m 13,7 km/h (3 Bft) S-SW 210 0 min 0 W/m 11,6 C 9,7 C 13,7 km/h (3 Bft)
29.10.2011 22:30 13,4 C 89 % 1019,5 hPa 0,0 l/m 13,1 km/h (3 Bft) SW 220 0 min 0 W/m 11,6 C 10,0 C 13,1 km/h (3 Bft)
29.10.2011 22:45 13,5 C 89 % 1019,5 hPa 0,0 l/m 17,0 km/h (3 Bft) S-SW 210 0 min 0 W/m 11,7 C 8,7 C 17,0 km/h (3 Bft)
29.10.2011 23:00 13,5 C 88 % 1019,5 hPa 0,0 l/m 8,2 km/h (2 Bft) S-SW 210 0 min 0 W/m 11,6 C 12,4 C 8,2 km/h (2 Bft)
29.10.2011 23:15 13,5 C 88 % 1019,5 hPa 0,0 l/m 12,1 km/h (2 Bft) SW 215 0 min 0 W/m 11,6 C 10,5 C 12,1 km/h (2 Bft)
29.10.2011 23:30 13,3 C 88 % 1018,5 hPa 0,0 l/m 13,0 km/h (3 Bft) S-SW 205 0 min 0 W/m 11,4 C 9,9 C 13,0 km/h (3 Bft)
29.10.2011 23:45 13,2 C 88 % 1018,5 hPa 0,0 l/m 12,8 km/h (3 Bft) S-SW 205 0 min 0 W/m 11,3 C 9,9 C 12,8 km/h (3 Bft)
_ Min-Zeit 02:46 15:00 23:30 - 00:00 - - - - 02:46 13:30 00:00
Minimum _ 10,6 C 85 % 1018,5 hPa - 0,0 km/h (0 Bft) - - - - 9,4 C 7,0 C 0,0 km/h (0 Bft)
_ Max-Zeit 14:45 09:45 00:00 00:00 13:30 - - 00:00 00:00 12:30 23:00 13:30
Maximum _ 13,9 C 94 % 1025,5 hPa 0,0 l/m 22,5 km/h
S (4 Bft)
- - 0 min 0 W/m 11,8 C 12,4 C 22,5 km/h
S (4 Bft)
Durchschnitt _ 12,3 C 90 % 1022,8 hPa #0,0 l/m 9,7 km/h (2 Bft) S - #0 min. 0 W/m 10,8 C 10,0 C 9,7 km/h (2 Bft)
copyright by Holger Just